Flag for U.S.A. Weather past 2 weeks in Port St. Lucie, Florida, U.S.A.

Now
73 °F

Mild.


Feels Like: 72 °F
Forecast: 74 / 88 °F
Wind: 3 mph from Southwest

Location: Witham Field Airport

Current Time: Aug 1, 2015 at 12:26:16 AM

Latest Report: Jul 31, 2015 at 11:55 PM


Visibility: N/A

Pressure: 30.04 "Hg

Humidity: 89%

Dew point: 70 °F

Location of Port St. LucieLocation

Historic Weather in Port St. Lucie — Graph

°F

Port St. Lucie temperature yesterday

Maximum temperature yesterday: 90 °F (at 3:47 PM)
Minimum temperature yesterday: 72 °F (at 6:47 PM)
Average temperature yesterday: 76 °F

Past Weeks' High & Low Weather Summary

 TemperatureHumidityPressure
High93 °F (Jul 21, 2:47 PM)94% (Jul 17, 3:15 AM)30.11 "Hg (Jul 17, 3:15 AM)
Low72 °F (Jul 17, 3:15 AM)41% (Jul 21, 1:47 PM)29.88 "Hg (Jul 26, 3:55 AM)
Average78 °F82%30.00 "Hg
* Reported Jul 16 10:15 PM — Jul 31 10:55 PM, Port St. Lucie, Weather by CustomWeather, © 2015

Note: Actual official high and low records may vary slightly from our data, if they occured in-between our weather recording intervals... More about our weather records

Advertising

Port St. Lucie weather history for previous 24 hours

 ConditionsComfort  
Time TempWeatherWind HumidityBarometerVisibility
10:55 PM
Fri, Jul 31
73 °FMild.3 mph89%30.05 "HgN/A
10:35 PM73 °FMild.3 mph89%30.05 "HgN/A
10:15 PM72 °FMild.3 mph94%30.03 "HgN/A
9:55 PM72 °FMild.3 mph94%30.03 "HgN/A
9:35 PM72 °FMild.No wind94%30.03 "HgN/A
9:15 PM72 °FMild.No wind94%30.03 "HgN/A
8:55 PM72 °FLight rain. Scattered clouds.3 mph88%30.04 "Hg10 mi
8:35 PM72 °FLight rain. Scattered clouds.8 mph88%30.03 "Hg10 mi
8:15 PM72 °FLight rain. Cloudy.No wind88%30.04 "HgN/A
7:55 PM72 °FLight rain. Broken clouds.No wind94%30.04 "Hg7 mi
7:35 PM72 °FThundershowers. More clouds than sun.3 mph94%30.04 "Hg7 mi
7:15 PM72 °FThundershowers. Cloudy.6 mph88%30.03 "HgN/A
6:47 PM72 °FThunderstorms. Overcast.9 mph88%30.06 "Hg2 mi
5:50 PM73 °FStrong thunderstorms. Overcast.21 mph94%30.02 "Hg2 mi
4:50 PM82 °FThundershowers. Partly sunny.12 mph70%29.99 "Hg5 mi
3:47 PM90 °FPartly sunny.15 mph63%29.99 "Hg7 mi
1:47 PM88 °FBroken clouds.10 mph59%30.02 "Hg10 mi
12:47 PM88 °FBroken clouds.14 mph59%30.03 "Hg10 mi
11:47 AM84 °FBroken clouds.7 mph74%30.06 "Hg10 mi
10:47 AM81 °FPartly sunny.5 mph84%30.06 "Hg10 mi
9:47 AM77 °FPartly sunny.5 mph89%30.05 "Hg10 mi
8:47 AM77 °FPartly sunny.N/A89%30.05 "Hg10 mi
7:47 AM75 °FScattered clouds.5 mph94%30.03 "Hg10 mi
6:50 AM75 °FPassing clouds.No wind94%30.01 "Hg10 mi
6:15 AM75 °FClear.No wind89%30.00 "Hg10 mi
5:55 AM75 °FClear.3 mph89%30.00 "Hg10 mi
5:35 AM75 °FClear.5 mph89%30.01 "Hg10 mi
5:15 AM75 °FClear.5 mph89%30.01 "Hg10 mi
4:55 AM75 °FClear.5 mph94%30.01 "Hg10 mi
4:35 AM75 °FClear.3 mph94%30.00 "Hg10 mi
4:15 AM75 °FClear.5 mph89%30.00 "Hg10 mi
3:35 AM75 °FClear.3 mph89%30.00 "Hg10 mi
3:15 AM75 °FClear.3 mph89%30.00 "Hg10 mi
2:55 AM75 °FClear.3 mph94%30.01 "Hg10 mi
2:35 AM77 °FClear.3 mph89%30.01 "Hg10 mi
2:15 AM77 °FClear.3 mph89%30.01 "Hg10 mi
1:55 AM77 °FClear.3 mph89%30.02 "Hg10 mi
1:15 AM77 °FClear.5 mph83%30.02 "Hg10 mi
12:55 AM77 °FClear.3 mph83%30.02 "Hg10 mi
12:35 AM75 °FClear.3 mph89%30.03 "Hg10 mi
Weather by CustomWeather, © 2015

See weather overviewHow to use our weather pages